Location: Arbon
(43.0005°N, 0.7472°E)
Time: 19:17:09
(UTC+00:00)

CBERS-1 - Pass Details

Date: 07 August 2020
Orbit: 769 x 778 km, 98.6° (Epoch: 24 September)

Event Time Altitude Azimuth Distance (km) Brightness Sun altitude
Rises 02:00:36 0° 16° (NNE) 3,261 8.5 -24.8°
Reaches altitude 10° 02:02:57 10° 20° (NNE) 2,328 7.5 -24.6°
Maximum altitude 02:08:03 65° 102° (ESE) 848 4.2 -24.1°
Enters shadow 02:09:11 50° 157° (SSE) 973 4.2 -24.0°
